Location: Passau
(48.5830°N, 13.4830°E)
Time: 20:49:20
(UTC+02:00)

Vanguard 3 - Pass Details

Date: 19 May 2024
Orbit: 509 x 3231 km, 33.3° (Epoch: 16 June)

Event Time Altitude Azimuth Distance (km) Brightness Sun altitude
Rises 02:28:18 0° 273° (W) 6,440 11.6 -19.0°
Reaches altitude 10° 02:33:08 10° 263° (W) 5,721 11.2 -18.7°
Maximum altitude 02:47:15 29° 213° (SSW) 4,737 10.4 -17.7°
Drops below altitude 10° 03:01:54 10° 163° (SSE) 5,890 11.1 -16.6°
Sets 03:07:04 0° 153° (SSE) 6,647 11.5 -16.2°
